Location: Ellerstadt
(49.4644°N, 8.2615°E)
Time: 20:15:10
(UTC+00:00)

Vanguard 1 - Pass Details

Date: 18 June 2021
Orbit: 651 x 3832 km, 34.2° (Epoch: 27 July)

Event Time Altitude Azimuth Distance (km) Brightness Sun altitude
Rises 19:04:54 0° 206° (SSW) 7,816 14.6 3.3°
Reaches altitude 10° 19:11:24 10° 197° (SSW) 6,914 14.2 2.4°
Maximum altitude 19:28:59 29° 148° (SSE) 5,149 13.2 0.1°
Drops below altitude 10° 19:43:11 10° 98° (E) 5,627 13.4 -1.7°
Sets 19:47:38 0° 87° (E) 6,218 13.7 -2.2°
